COSMOS 2499 DEB, 55719

Orbit data source: Space-Track

COSMOS 2499 DEB, 55719 is space debris in LEO originally from a launch on Fri, 23 May 2014 UTC launched from the Plesetsk Missile And Space Complex (PKMTR). Debris objects in space refer to the collection of defunct objects orbiting the Earth. Examples of debris include non-operational satellites, rocket bodies, and fragments generated from explosions, collisions, or faulty payload assembly.

Loading next visibility...
Identifier
55719, 2014-028AF
Orbit
LEO
Country
Flag of CISCIS
Related business
Manufacturer
TsNIIKhM
Mission
Spacecraft
Bus & Motor
Unknown
Mass
Unknown
Launch date (UTC)
2014-05-23 (12 years ago)
Launch vehicle
Unknown
Launch site
Plesetsk Missile And Space Complex (PKMTR)
Object type
Payload
Rocket body
Debris
Shape & HBR
Unknown shape, 0.1 m
Radar Cross Section
Small (<0.1 m²)

Expand to show TLE details & history
Last TLE update: 1 day ago

TLE from 1 day ago
0 COSMOS 2499 DEB
1 55719U 14028AF  25348.79099003  .00003685  00000-0  11999-1 0  9993
2 55719  82.3856   6.9903 0236460  48.2520 313.8540 12.92356977137758
Epoch: 2025-12-14T18:59Z
TLE epoch observation values (Epoch: 2025-12-14T18:59:01.538Z)
Latitude
-0.00003°
Longitude
-1.46496°
Altitude
1,171.556 km
Speed
7.326 km/s
True Right ascension
00h 27m 57s
True Declination
0° 00' 00"
Sunlit
Object was in daylight at epoch
Visualization orbit readout
Latitude
Unknown
Longitude
Unknown
Altitude
Unknown
Speed
Unknown
Apparent Right ascension
Unknown
Apparent Declination
Unknown
Sunlit
N/A
Visualization observer readout
Local Sidereal Time
03:22:47
Azimuth
Unknown
Elevation
Unknown
Doppler factor
Unknown
Orbital elements
Apogee altitude
1,470.775 km
Perigee altitude
1,108.159 km
Semi-major axis
7,667.604 km
Eccentricity
0.02365
Inclination
82.3856°
RAAN
6.9903°
Arg. of periapsis
48.252°
True anomaly
311.85965°
Mean anomaly
313.854°
Eccentric anomaly
312.86091°
Mean motion
3.23261 °/min
Orbital period
111.37 mins
BSTAR
0.011999
Loading maneuver chart data...
Computing Atmospheric mass density...
Loading historical data...
Loading historical data...
Loading historical data...
Loading historical data...
Loading historical data...
Loading historical data...
Loading historical data...

Documentation

Showing up to 5 results
|